Hourly Data Report for July 06, 2017

CAPE RACE (AUT)
NEWFOUNDLAND

46°39'36.000" N
53°04'35.000" W
26.50 m
8401000
71800
WRA

Download Data

Hourly Data (July 2017)
Hourly Data Report for July 6, 2017
TIME
LST
Temp Definition
°C
Dew Point Definition
°C
Rel Hum Definition
%
Precip. Amount Definition
mm

Wind Dir Definition
10's deg

Wind Spd Definition
km/h
Visibility Definition
km
Stn Press Definition
kPa
Hmdx Definition


Wind Chill Definition


Weather Definition


00:30 5.6 LegendMM 100 0.0 33 4   101.82     LegendNANA
01:30 4.6 LegendMM 100 0.0 26 7   101.82     LegendNANA
02:30 5.9 LegendMM 100 0.0 29 19   101.75     LegendNANA
03:30 4.3 LegendMM 100 0.0 1 7   101.76     LegendNANA
04:30 5.4 LegendMM 100 0.0 14 3   101.80     LegendNANA
05:30 4.8 LegendMM 100 0.0 18 4   101.81     LegendNANA
06:30 6.1 LegendMM 100 0.0 20 8   101.87     LegendNANA
07:30 6.1 LegendMM 100 0.0 21 14   101.88     LegendNANA
08:30 7.4 7.3 100 0.0 20 14   101.90     LegendNANA
09:30 10.5 8.8 89 0.0 21 19   101.94     LegendNANA
10:30 11.8 9.7 87 0.0 23 19   101.93     LegendNANA
11:30 14.0 10.6 81 0.0 23 23   101.87     LegendNANA
12:30 15.3 9.9 70 0.0 25 38   101.88     LegendNANA
13:30 16.0 10.4 69 0.0 25 31   101.86     LegendNANA
14:30 17.1 10.7 66 0.0 25 31   101.87     LegendNANA
15:30 14.3 9.5 73 0.0 25 36   101.92     LegendNANA
16:30 13.0 9.6 80 0.0 24 30   101.94     LegendNANA
17:30 9.6 7.8 89 0.0 24 25   101.96     LegendNANA
18:30 7.3 7.0 98 0.0 20 14   101.99     LegendNANA
19:30 7.1 7.0 99 0.0 21 14   102.03     LegendNANA
20:30 6.7 6.7 100 0.0 21 14   102.05     LegendNANA
21:30 6.4 LegendMM 100 0.0 22 16   102.04     LegendNANA
22:30 5.9 LegendMM 100 0.0 24 22   102.01     LegendNANA
23:30 6.2 LegendMM 100 0.0 23 22   102.00     LegendNANA

Notes on Data Quality.

Legend

  • E = Estimated
  • M = Missing
  • NA = Not Available*
  • [empty] = Indicates an unobserved value
Date modified: